Regional Weather Roundup
Issued by NWS

Home | Current Version | Previous Version | Text Only | Print | Product List | Glossary Off
Versions: 1 2 3 4 5 6 7 8 9 10 11 12 13 14 15 16 17 18 19 20 21 22 23 24 25 26 27 28 29 30 31 32 33 34 35 36 37 38 39 40 41 42 43 44 45 46 47 48 49 50

000
ASUS43 KLOT 012200
RWRIL

ILLINOIS REGIONAL WEATHER ROUNDUP
NATIONAL WEATHER SERVICE CHICAGO/ROMEOVILLE IL
400 PM CST SUN FEB 01 2015

NOTE: "FAIR" INDICATES FEW OR NO CLOUDS BELOW 12,000 FEET WITH NO
SIGNIFICANT WEATHER AND/OR OBSTRUCTIONS TO VISIBILITY.

* THESE STATIONS ARE NOT UNDER NWS QUALITY CONTROL. THEY ALSO MAY NOT
  REPORT WEATHER SUCH AS PRECIPITATION OR FOG.

ILZ001-002-007-009-015-016-024-012300-
NORTHWEST ILLINOIS

CITY           SKY/WX    TMP DP  RH WIND       PRES   REMARKS
MOLINE         SNOW      21  17  84 N15G24    29.81R VSB 1/2 WCI   8
STERLING*        N/A    N/A N/A N/A MISG        N/A
$$

ILZ003-004-008-010-011-017-018-012300-
NORTH CENTRAL ILLINOIS

CITY           SKY/WX    TMP DP  RH WIND       PRES   REMARKS
ROCKFORD       SNOW      22  17  81 NE26G35   29.83R VSB 1/4 WCI   5
$$

ILZ005-006-012>014-019>023-012300-
NORTHEAST ILLINOIS

CITY           SKY/WX    TMP DP  RH WIND       PRES   REMARKS
CHICAGO-OHARE  SNOW      22  20  92 NE24G35   29.77R VSB 1/4 WCI   5
CHICAGO-MIDWAY SNOW      25  22  88 NE22G30   29.75R VSB 1/2 WCI  10
AURORA         HVY SNOW  24  19  81 NE29G39   29.72F VSB 1/8 WCI   7
WAUKEGAN       HVY SNOW  21  20  96 N16G25    29.82S VSB<1/4 WCI   7
DUPAGE AIRPORT HVY SNOW  23  19  85 NE30G44   29.74F VSB 1/4 WCI   5
WHEELING       HVY SNOW  22  19  89 NE21G33   29.82R VSB 1/4 WCI   6
NORTHERLY ISL    N/A     24  23  96 N26         N/A  WCI   8
$$

LMZ740>746-012300-
SOUTHERN LAKE MICHIGAN

STATION/POSITION SKY/WX   TEMP    WIND        PRES    VSBY  WAVE
                          AIR SEA DIR/SP/G                  HT/PER
                          (F)     (DEG/KT/KT) (MB)    (MI)  (FT/S)
WAUKEGAN HARBOR            23      40/ 34/ 41   N/A
HARRISON CRIB              24      40/ 33/ 39   N/A
BURNHAM HARBOR             24      30/ 27/ 27   N/A
CALUMET HARBOR             25      30/ 21/ 27   N/A
MICHIGAN CITY              24      40/ 22/ 25   N/A
$$

ILZ025>027-034>036-040-047-049-050-058-095>099-012300-
WEST-CENTRAL ILLINOIS

CITY           SKY/WX    TMP DP  RH WIND       PRES   REMARKS
QUINCY         LGT SNOW  29  25  85 N23G33    29.71R FOG     WCI  15
$$

ILZ028>032-037-038-041>044-048-051>054-059>061-012300-
CENTRAL ILLINOIS

CITY           SKY/WX    TMP DP  RH WIND       PRES   REMARKS
DECATUR        CLOUDY    34  33  96 W8        29.61R WCI  27
PEORIA         LGT SNOW  30  25  81 NE15G26   29.68R VSB 3/4 WCI  19
SPRINGFIELD    CLOUDY    34  32  92 NW8       29.64R WCI  27
TAYLORVILLE    NOT AVBL
$$

ILZ033-039-045-046-055>057-062-063-012300-
EAST-CENTRAL ILLINOIS

CITY           SKY/WX    TMP DP  RH WIND       PRES   REMARKS
CHAMPAIGN      FOG       33  32  96 W5        29.59S VSB 1/2 WCI  29
MATTOON        CLOUDY    36  34  92 W7        29.59S WCI  30
$$

ILZ079-100>102-012300-
SOUTHWEST ILLINOIS

CITY           SKY/WX    TMP DP  RH WIND       PRES   REMARKS
BELLEVILLE     CLOUDY    41  41  99 NW9       29.65R
CAHOKIA*       CLOUDY    42  37  82 NW15      29.66R
$$

ILZ064>066-069>071-074>076-080>082-084>086-088>090-092>094-012300-
SOUTH-CENTRAL ILLINOIS

CITY           SKY/WX    TMP DP  RH WIND       PRES   REMARKS
CARBONDALE     CLOUDY    46  43  89 W7        29.64S
MARION         CLOUDY    48  45  87 SW12      29.64F
MT. VERNON     CLOUDY    43  37  81 W10       29.64R
$$

ILZ067-068-072-073-078-083-087-091-012300-
SOUTHEAST ILLINOIS

CITY           SKY/WX    TMP DP  RH WIND       PRES   REMARKS
LAWRENCEVILLE  CLOUDY    44  44 100 SW13      29.60F FOG
$$

ABBREVIATIONS USED IN REMARKS
   TC - TEMPERATURE IN CELSIUS
  WCI - WIND CHILL INDEX
   HX - HEAT INDEX
  VSB - VISIBILITY
$$




USA.gov is the U.S. government's official web portal to all federal, state and local government web resources and services.